Northeast Philadelphia, PA

1:17 PM EST on November 20, 2017 (GMT -0500)
Northeast Philadelphia

Weather History for KPNE - May, 2013

Change the Weather History Date:

Friday, May 24, 2013

  Actual Average Record
Temperature  
Mean Temperature 56 °F -  
Max Temperature 66 °F 71 °F 90 °F (2004)
Min Temperature 46 °F 52 °F 46 °F (1997)
Degree Days  
Heating Degree Days 9    
Growing Degree Days 6 (Base 50)    
Moisture  
Dew Point 51 °F    
Average Humidity 83    
Maximum Humidity 94    
Minimum Humidity 59    
Precipitation  
Precipitation 0.39 in - - ()
Sea Level Pressure  
Sea Level Pressure 29.85 in    
Wind  
Wind Speed 9 mph (NW)    
Max Wind Speed 20 mph    
Max Gust Speed 31 mph    
Visibility 9 miles    
Events Rain    
Averages and records for this station are not official NWS values.
T = Trace of Precipitation, MM = Missing Value Source: NWS Daily Summary

Daily Weather History Graph

Daily Weather History Graph

Search for Another Location

Airport or City:

Trip Planner

Search our weather history database for the weather conditions in past years. The results will help you decide how hot, cold, wet, or windy it might be!

Date:

Astronomy

May. 24, 2013 Rise Set
Actual Time 5:37 AM EDT 8:17 PM EDT
Civil Twilight 5:05 AM EDT 8:48 PM EDT
Nautical Twilight 4:26 AM EDT 9:28 PM EDT
Astronomical Twilight 3:41 AM EDT 10:12 PM EDT
Moon 7:56 PM EDT (5/24) 5:07 AM EDT (5/24)
Length of Visible Light 15h 42m
Length of Day
14h 39m
Full, 100% of the Moon is Illuminated
May 24
Full
May 25
Full
May 31
Last Quarter
Jun 8
New
Jun 16
First Quarter

Hourly Weather History & Observations

Time (EDT) Temp. Windchill Dew Point Humidity Pressure Visibility Wind Dir Wind Speed Gust Speed Precip Events Conditions
12:06 AM 64.4 °F - 60.8 °F 88% 29.78 in 2.0 mi WNW 11.5 mph - 0.25 in Rain Rain
12:13 AM 64.4 °F - 60.8 °F 88% 29.78 in 5.0 mi West 4.6 mph - 0.27 in Rain Rain
12:54 AM 64.0 °F - 62.1 °F 93% 29.75 in 10.0 mi Calm Calm - 0.29 in Rain Light Rain
1:54 AM 64.0 °F - 62.1 °F 93% 29.74 in 10.0 mi Calm Calm - 0.01 in Rain Light Rain
2:54 AM 64.0 °F - 62.1 °F 93% 29.74 in 10.0 mi Calm Calm - 0.00 in Rain Light Rain
3:11 AM 64.4 °F - 62.6 °F 94% 29.73 in 10.0 mi Calm Calm - 0.00 in   Mostly Cloudy
3:54 AM 64.0 °F - 62.1 °F 93% 29.73 in 9.0 mi Calm Calm - 0.00 in   Overcast
4:54 AM 64.0 °F - 62.1 °F 93% 29.73 in 7.0 mi WSW 3.5 mph - N/A   Overcast
5:09 AM 64.4 °F - 62.6 °F 94% 29.73 in 10.0 mi WSW 4.6 mph - N/A   Overcast
5:54 AM 64.0 °F - 62.1 °F 93% 29.74 in 10.0 mi WSW 3.5 mph - N/A   Overcast
6:54 AM 64.0 °F - 62.1 °F 93% 29.75 in 10.0 mi WSW 4.6 mph - N/A   Mostly Cloudy
7:54 AM 64.9 °F - 62.1 °F 90% 29.77 in 10.0 mi West 6.9 mph - N/A   Mostly Cloudy
8:08 AM 66.2 °F - 62.6 °F 88% 29.77 in 10.0 mi West 6.9 mph - N/A   Scattered Clouds
8:25 AM 66.2 °F - 62.6 °F 88% 29.78 in 10.0 mi North - - N/A   Mostly Cloudy
8:54 AM 66.0 °F - 62.1 °F 87% 29.77 in 9.0 mi WNW 8.1 mph - 0.00 in Rain Light Rain
9:39 AM 64.4 °F - 60.8 °F 88% 29.78 in 10.0 mi WNW 8.1 mph - 0.00 in   Overcast
9:54 AM 59.0 °F - 55.0 °F 87% 29.80 in 9.0 mi NW 19.6 mph 31.1 mph 0.00 in Rain Light Rain
10:27 AM 53.6 °F - 51.8 °F 94% 29.83 in 10.0 mi NW 15.0 mph 25.3 mph 0.00 in Rain Light Rain
10:54 AM 52.0 °F - 48.9 °F 89% 29.84 in 9.0 mi NNW 16.1 mph 25.3 mph 0.00 in Rain Light Rain
11:14 AM 51.8 °F - 48.2 °F 88% 29.85 in 9.0 mi NNW 13.8 mph 20.7 mph 0.01 in Rain Light Rain
11:54 AM 51.1 °F - 46.9 °F 86% 29.87 in 10.0 mi NNW 15.0 mph 21.9 mph 0.01 in   Overcast
12:10 PM 51.8 °F - 46.4 °F 82% 29.87 in 10.0 mi NW 15.0 mph 21.9 mph N/A   Overcast
12:54 PM 51.1 °F - 45.0 °F 80% 29.89 in 10.0 mi NNW 18.4 mph 25.3 mph 0.00 in Rain Light Rain
1:54 PM 51.1 °F - 46.0 °F 83% 29.90 in 9.0 mi NNW 12.7 mph 20.7 mph 0.03 in Rain Light Rain
2:23 PM 50.0 °F - 44.6 °F 82% 29.91 in 10.0 mi NNW 15.0 mph 24.2 mph 0.00 in Rain Light Rain
2:54 PM 51.1 °F - 45.0 °F 80% 29.91 in 10.0 mi NNW 11.5 mph - 0.00 in   Overcast
3:05 PM 51.8 °F - 44.6 °F 76% 29.91 in 10.0 mi NNW 13.8 mph - 0.00 in Rain Light Rain
3:54 PM 50.0 °F - 44.1 °F 80% 29.93 in 10.0 mi NW 13.8 mph - 0.02 in Rain Light Rain
4:24 PM 50.0 °F - 42.8 °F 76% 29.93 in 10.0 mi NNW 12.7 mph 27.6 mph 0.00 in   Overcast
4:54 PM 51.1 °F - 41.0 °F 68% 29.94 in 10.0 mi NNW 13.8 mph - 0.00 in   Overcast
5:54 PM 51.1 °F - 39.0 °F 63% 29.95 in 10.0 mi NNW 18.4 mph 26.5 mph N/A   Overcast
6:54 PM 51.1 °F - 37.0 °F 59% 29.96 in 10.0 mi NNW 17.3 mph 27.6 mph N/A   Overcast
7:54 PM 50.0 °F - 37.0 °F 61% 29.99 in 10.0 mi NNW 16.1 mph 25.3 mph N/A   Overcast
8:54 PM 48.0 °F - 37.0 °F 66% 30.01 in 10.0 mi NW 11.5 mph 20.7 mph 0.00 in Rain Light Rain
9:54 PM 46.0 °F 40.2 °F 37.9 °F 73% 30.03 in 10.0 mi NW 12.7 mph 26.5 mph 0.03 in Rain Light Rain
10:54 PM 46.0 °F 39.6 °F 37.9 °F 73% 30.03 in 10.0 mi NW 15.0 mph 23.0 mph 0.00 in   Overcast
11:54 PM 46.9 °F - 37.0 °F 68% 30.03 in 10.0 mi NW 17.3 mph 23.0 mph 0.00 in   Overcast